Everett, WA

3:51 PM PST on December 14, 2019 (GMT -0800)
Snohomish County

Weather History for KPAE - October, 2019

Change the Weather History Date:

Friday, October 18, 2019

  Actual Average Record
Temperature  
Mean Temperature 48 °F -  
Max Temperature 51 °F 58 °F 77 °F (1989)
Min Temperature 46 °F 41 °F 26 °F (1949)
Degree Days  
Heating Degree Days 16    
Moisture  
Dew Point 45 °F    
Average Humidity 87    
Maximum Humidity 93    
Minimum Humidity 80    
Precipitation  
Precipitation 0.02 in - - ()
Sea Level Pressure  
Sea Level Pressure 29.84 in    
Wind  
Wind Speed 11 mph (South)    
Max Wind Speed 20 mph    
Max Gust Speed 28 mph    
Visibility 10 miles    
Events Rain    
Averages and records for this station are not official NWS values.
T = Trace of Precipitation, MM = Missing Value Source: NWS Daily Summary

Daily Weather History Graph

Daily Weather History Graph

Search for Another Location

Airport or City:

Astronomy

Oct. 18, 2019 Rise Set
Actual Time 7:32 AM PDT 6:15 PM PDT
Civil Twilight 7:01 AM PDT 6:46 PM PDT
Nautical Twilight 6:25 AM PDT 7:22 PM PDT
Astronomical Twilight 5:49 AM PDT 7:58 PM PDT
Moon 9:18 PM PDT (10/18) 12:28 PM PDT (10/18)
Length of Visible Light 11h 45m
Length of Day
10h 42m
Waning Gibbous, 78% of the Moon is Illuminated
Oct 18
Waning Gibbous
Oct 21
Last Quarter
Oct 27
New
Nov 4
First Quarter
Nov 12
Full

Hourly Weather History & Observations

Time (PDT) Temp. Windchill Dew Point Humidity Pressure Visibility Wind Dir Wind Speed Gust Speed Precip Events Conditions
12:20 AM 48.0 °F - 45.0 °F 89% 29.76 in 10.0 mi South 6.9 mph - N/A   Mostly Cloudy
12:53 AM 48.0 °F - 45.0 °F 89% 29.78 in 10.0 mi South 6.9 mph - N/A   Overcast
1:23 AM 46.9 °F - 44.1 °F 90% 29.78 in 10.0 mi South 6.9 mph - N/A   Overcast
2:33 AM 46.9 °F - 45.0 °F 93% 29.81 in 10.0 mi South 9.2 mph - N/A   Overcast
2:44 AM 46.9 °F - 44.1 °F 90% 29.81 in 10.0 mi South 9.2 mph - N/A   Mostly Cloudy
2:53 AM 46.0 °F 41.4 °F 44.1 °F 93% 29.82 in 10.0 mi South 9.2 mph - N/A   Mostly Cloudy
3:53 AM 46.9 °F - 44.1 °F 90% 29.85 in 10.0 mi South 6.9 mph - N/A   Mostly Cloudy
4:53 AM 46.9 °F - 44.1 °F 90% 29.87 in 10.0 mi South 11.5 mph - N/A   Overcast
5:53 AM 46.0 °F 41.0 °F 44.1 °F 93% 29.87 in 10.0 mi South 10.4 mph - 0.00 in   Partly Cloudy
6:53 AM 46.9 °F - 44.1 °F 90% 29.88 in 10.0 mi South 12.7 mph - N/A   Clear
7:53 AM 48.0 °F - 44.1 °F 86% 29.88 in 10.0 mi South 10.4 mph - N/A   Mostly Cloudy
8:53 AM 48.0 °F - 43.0 °F 83% 29.89 in 10.0 mi South 13.8 mph - N/A   Clear
9:48 AM 48.2 °F - 44.6 °F 87% 29.88 in 10.0 mi South 18.4 mph 27.6 mph N/A   Overcast
9:53 AM 48.9 °F - 44.1 °F 83% 29.89 in 10.0 mi South 19.6 mph 27.6 mph N/A   Overcast
10:53 AM 51.1 °F - 45.0 °F 80% 29.89 in 10.0 mi South 15.0 mph 26.5 mph N/A   Mostly Cloudy
11:53 AM 50.0 °F - 44.1 °F 80% 29.88 in 10.0 mi South 15.0 mph 23.0 mph N/A   Mostly Cloudy
12:53 PM 50.0 °F - 44.1 °F 80% 29.89 in 10.0 mi SSE 16.1 mph 21.9 mph N/A   Mostly Cloudy
1:24 PM 50.0 °F - 44.1 °F 80% 29.87 in 10.0 mi South 19.6 mph 25.3 mph N/A   Mostly Cloudy
1:40 PM 50.0 °F - 44.1 °F 80% 29.87 in 10.0 mi South 18.4 mph 24.2 mph N/A   Overcast
1:53 PM 50.0 °F - 44.1 °F 80% 29.87 in 10.0 mi South 15.0 mph 24.2 mph N/A   Overcast
2:10 PM 50.0 °F - 44.1 °F 80% 29.86 in 10.0 mi South 15.0 mph 23.0 mph 0.00 in   Overcast
2:53 PM 51.1 °F - 45.0 °F 80% 29.88 in 10.0 mi South 17.3 mph 23.0 mph 0.00 in   Mostly Cloudy
3:53 PM 51.1 °F - 45.0 °F 80% 29.87 in 10.0 mi SSE 12.7 mph - N/A   Mostly Cloudy
4:00 PM 51.1 °F - 45.0 °F 80% 29.86 in 10.0 mi SSE 17.3 mph 21.9 mph N/A   Overcast
4:04 PM 51.1 °F - 45.0 °F 80% 29.86 in 10.0 mi South 15.0 mph - N/A   Overcast
4:53 PM 51.1 °F - 46.0 °F 83% 29.87 in 10.0 mi South 12.7 mph - N/A   Overcast
5:00 PM 51.1 °F - 46.0 °F 83% 29.86 in 10.0 mi South 13.8 mph - N/A   Overcast
5:53 PM 50.0 °F - 46.9 °F 89% 29.85 in 7.0 mi South 10.4 mph - 0.02 in Rain Light Rain
6:53 PM 50.0 °F - 46.9 °F 89% 29.84 in 10.0 mi SSE 11.5 mph - 0.00 in   Mostly Cloudy
7:53 PM 48.9 °F - 46.9 °F 93% 29.84 in 10.0 mi SSE 10.4 mph - N/A   Mostly Cloudy
8:53 PM 48.0 °F - 46.0 °F 93% 29.82 in 10.0 mi SSE 12.7 mph - N/A   Mostly Cloudy
9:00 PM 48.0 °F - 46.0 °F 93% 29.82 in 10.0 mi SSE 11.5 mph - N/A   Overcast
9:30 PM 48.0 °F - 46.0 °F 93% 29.81 in 10.0 mi SSE 10.4 mph - N/A   Overcast
9:53 PM 48.0 °F - 46.0 °F 93% 29.81 in 10.0 mi SSE 10.4 mph - N/A   Overcast
10:08 PM 48.0 °F - 46.0 °F 93% 29.80 in 10.0 mi SSE 9.2 mph - N/A   Overcast
10:53 PM 48.9 °F - 46.9 °F 93% 29.77 in 10.0 mi Variable 4.6 mph - N/A   Overcast
11:53 PM 48.9 °F - 46.0 °F 90% 29.76 in 10.0 mi Variable 6.9 mph - N/A   Overcast